Hattiesburg, MS

3:22 PM CDT on May 23, 2017 (GMT -0500)
Chain Municipal

Weather History for KHBG - July, 2013

Change the Weather History Date:

Saturday, July 13, 2013

  Actual Average Record
Temperature  
Mean Temperature 81 °F 82 °F  
Max Temperature 91 °F 92 °F 100 °F (2008)
Min Temperature 70 °F 72 °F 65 °F (1972)
Degree Days  
Heating Degree Days 0 0  
Month to date heating degree days 0 0  
Since 1 June heating degree days 0 0  
Since 1 July heating degree days 0 0  
Cooling Degree Days 16 17  
Month to date cooling degree days 181 216  
Year to date cooling degree days 993 1054  
Since 1 June cooling degree days 651 639  
Growing Degree Days 30 (Base 50)    
Moisture  
Dew Point 71 °F    
Average Humidity 76    
Maximum Humidity 100    
Minimum Humidity 52    
Precipitation  
Precipitation 0.05 in 0.19 in 1.35 in (2007)
Month to date precipitation 3.11 2.54  
Year to date precipitation 45.40 34.58  
Sea Level Pressure  
Sea Level Pressure 29.93 in    
Wind  
Wind Speed 4 mph (NNE)    
Max Wind Speed 26 mph    
Max Gust Speed 33 mph    
Visibility 9 miles    
Events Rain , Thunderstorm    
T = Trace of Precipitation, MM = Missing Value Source: NWS Daily Summary

Daily Weather History Graph

Daily Weather History Graph

Search for Another Location

Airport or City:

Trip Planner

Search our weather history database for the weather conditions in past years. The results will help you decide how hot, cold, wet, or windy it might be!

Date:

Astronomy

Jul. 13, 2013 Rise Set
Actual Time 6:02 AM CDT 8:03 PM CDT
Civil Twilight 5:34 AM CDT 8:30 PM CDT
Nautical Twilight 5:01 AM CDT 9:03 PM CDT
Astronomical Twilight 4:26 AM CDT 9:39 PM CDT
Moon 10:55 AM CDT (7/13) 11:09 PM CDT (7/13)
Length of Visible Light 14h 55m
Length of Day
14h 00m
Waxing Crescent, 26% of the Moon is Illuminated
Jul 13
Waxing Crescent
Jul 15
First Quarter
Jul 22
Full
Jul 29
Last Quarter
Aug 6
New

Hourly Weather History & Observations

Time (CDT) Temp. Heat Index Dew Point Humidity Pressure Visibility Wind Dir Wind Speed Gust Speed Precip Events Conditions
12:53 AM 73.0 °F - 72.0 °F 96% 29.92 in 5.0 mi Calm Calm - N/A   Clear
1:53 AM 72.0 °F - 71.1 °F 97% 29.91 in 5.0 mi Calm Calm - N/A   Partly Cloudy
2:53 AM 72.0 °F - 71.1 °F 97% 29.91 in 8.0 mi Calm Calm - N/A   Clear
3:53 AM 71.1 °F - 70.0 °F 96% 29.90 in 4.0 mi Calm Calm - N/A   Clear
4:53 AM 71.1 °F - 69.1 °F 93% 29.90 in 7.0 mi NW 3.5 mph - N/A   Clear
5:53 AM 70.0 °F - 69.1 °F 97% 29.91 in 7.0 mi Calm Calm - N/A   Clear
6:53 AM 72.0 °F - 69.1 °F 91% 29.93 in 6.0 mi NW 3.5 mph - N/A   Clear
7:53 AM 73.9 °F - 69.1 °F 85% 29.95 in 7.0 mi North 4.6 mph - N/A   Mostly Cloudy
8:53 AM 77.0 °F - 70.0 °F 79% 29.95 in 9.0 mi Calm Calm - N/A   Scattered Clouds
9:53 AM 80.1 °F 83.8 °F 72.0 °F 76% 29.94 in 10.0 mi NE 8.1 mph 32.2 mph N/A   Clear
10:53 AM 84.0 °F 90.2 °F 73.0 °F 69% 29.95 in 10.0 mi North 4.6 mph - N/A   Partly Cloudy
11:53 AM 87.1 °F 95.4 °F 73.9 °F 65% 29.95 in 10.0 mi NW 5.8 mph - N/A   Clear
12:53 PM 88.0 °F 95.6 °F 73.0 °F 61% 29.94 in 10.0 mi NW 8.1 mph - N/A   Partly Cloudy
1:53 PM 88.0 °F 94.7 °F 72.0 °F 59% 29.91 in 10.0 mi North 6.9 mph - N/A   Partly Cloudy
2:53 PM 90.0 °F 96.4 °F 71.1 °F 54% 29.90 in 10.0 mi NNW 8.1 mph - N/A   Clear
3:53 PM 90.0 °F 95.4 °F 70.0 °F 52% 29.89 in 10.0 mi Variable 5.8 mph - N/A   Clear
4:53 PM 88.0 °F 94.7 °F 72.0 °F 59% 29.88 in 10.0 mi NE 8.1 mph - N/A   Partly Cloudy
5:31 PM 80.6 °F 83.9 °F 69.8 °F 70% 29.93 in 10.0 mi SE 26.5 mph 31.1 mph N/A Thunderstorm Mostly Cloudy
5:43 PM 78.8 °F - 69.8 °F 74% 29.93 in 10.0 mi ESE 21.9 mph 28.8 mph N/A Thunderstorm Mostly Cloudy
5:53 PM 75.0 °F - 68.0 °F 79% 29.93 in 9.0 mi SE 20.7 mph 28.8 mph 0.00 in Rain , Thunderstorm Light Rain
6:27 PM 73.4 °F - 71.6 °F 94% 29.93 in 10.0 mi East 4.6 mph - 0.05 in Rain Light Rain
6:53 PM 75.0 °F - 68.0 °F 79% 29.92 in 10.0 mi Calm Calm - 0.05 in   Scattered Clouds
7:53 PM 75.0 °F - 71.1 °F 87% 29.93 in 10.0 mi North 3.5 mph - N/A   Clear
8:53 PM 73.0 °F - 71.1 °F 93% 29.92 in 9.0 mi Calm Calm - N/A   Clear
9:53 PM 72.0 °F - 71.1 °F 97% 29.96 in 10.0 mi South 3.5 mph - N/A   Clear
10:53 PM 72.0 °F - 70.0 °F 93% 29.97 in 9.0 mi SE 3.5 mph - N/A   Clear
11:53 PM 71.1 °F - 70.0 °F 96% 29.99 in 7.0 mi East 4.6 mph - N/A   Clear